This demonstration page uses our WeatherBlox Daily Observations layout. Learn more.

Left ArrowRight Arrow

38.20091, -84.87328

Hourly Observations for August 23, 2021

Temp ( °F °C ) Dew Point ( °F °C ) Humidity (%) Winds ( mph kmh ) Pressure ( in mb ) Visibility ( mi km ) Precip ( " mm )
12:53 am 00:53 Clear with Mist and Fog 73 22.8 71 21.7 94 94 Calm 29.95 1014 4 6 0.00 0.00
1:53 am 01:53 Clear with Mist and Fog 71 21.7 70 21.1 96 96 Calm 29.95 1014 3 5 0.00 0.00
2:53 am 02:53 Clear with Mist and Fog 71 21.7 69 20.6 94 94 Calm 29.96 1015 5 8 0.00 0.00
3:53 am 03:53 Clear with Mist and Fog 71 21.7 69 20.6 94 94 NW 3 6 29.96 1015 5 8 0.00 0.00
4:45 am 04:45 Clear with Mist and Fog 70 21.1 69 20.6 97 97 Calm 29.98 1015 2 3 0.00 0.00
4:53 am 04:53 Clear with Mist and Fog 70 21.1 69 20.6 97 97 Calm 29.97 1015 1 2 0.00 0.00
5:00 am 05:00 Clear with Mist and Fog 69 20.6 68 20 96 96 Calm 29.98 1015 3 5 0.00 0.00
5:29 am 05:29 Clear with Mist and Fog 69 20.6 67 19.4 93 93 Calm 29.97 1015 3 4 0.00 0.00
5:36 am 05:36 Clear with Mist and Fog 69 20.6 67 19.4 93 93 Calm 29.98 1015 4 6 0.00 0.00
5:53 am 05:53 Clear with Mist and Fog 69 20.6 68 20 96 96 Calm 29.97 1015 4 6 0.00 0.00
6:53 am 06:53 Clear with Mist and Fog 68 20 66 18.9 93 93 Calm 29.98 1015 4 6 0.00 0.00
7:53 am 07:53 Sunny with Mist and Fog 70 21.1 68 20 93 93 Calm 29.99 1016 4 6 0.00 0.00
8:53 am 08:53 Sunny 76 24.4 71 21.7 85 85 SW 3 6 29.99 1016 8 13 0.00 0.00
9:53 am 09:53 Sunny 81 27.2 72 22.2 74 74 Calm 29.99 1016 10 16 0.00 0.00
10:53 am 10:53 Sunny 87 30.6 70 21.1 57 57 Calm 30.00 1016 10 16 0.00 0.00
11:53 am 11:53 Sunny 88 31.1 70 21.1 55 55 W 5 7 30.01 1016 10 16 0.00 0.00
12:53 pm 12:53 Sunny 89 31.7 69 20.6 52 52 Calm 30.00 1016 10 16 0.00 0.00
1:53 pm 13:53 Sunny 90 32.2 68 20 48 48 W 7 11 30.00 1016 10 16 0.00 0.00
2:53 pm 14:53 Mostly Sunny 91 32.8 69 20.6 49 49 WNW 8 13 29.99 1016 10 16 0.00 0.00
3:53 pm 15:53 Sunny 91 32.8 69 20.6 49 49 W 5 7 29.97 1015 10 16 0.00 0.00
4:53 pm 16:53 Sunny 92 33.3 68 20 46 46 NNW 5 7 29.96 1015 10 16 0.00 0.00
5:53 pm 17:53 Sunny 93 33.9 70 21.1 47 47 WNW 5 7 29.95 1014 10 16 0.00 0.00
6:53 pm 18:53 Sunny 88 31.1 72 22.2 59 59 SW 6 9 29.95 1014 10 16 0.00 0.00
7:53 pm 19:53 Sunny 85 29.4 73 22.8 68 68 SW 5 7 29.96 1014 10 16 0.00 0.00
8:53 pm 20:53 Clear 82 27.8 74 23.3 77 77 WSW 3 6 29.98 1015 10 16 0.00 0.00
9:53 pm 21:53 Clear 79 26.1 74 23.3 85 85 SW 3 6 29.99 1016 10 16 0.00 0.00
10:53 pm 22:53 Clear 78 25.6 73 22.8 85 85 Calm 29.99 1016 10 16 0.00 0.00
11:53 pm 23:53 Clear 77 25 73 22.8 88 88 WSW 5 7 29.99 1016 9 14 0.00 0.00

Powered by AerisWeather